Cairns, Australia

8:02 PM AEST on September 20, 2017 (GMT +1000)
Cairns International

Weather History for YBCS - October, 2014

Change the Weather History Date:

Friday, October 17, 2014

  Actual Average Record
Temperature  
Mean Temperature 76 °F -  
Max Temperature 87 °F 86 °F 89 °F (2011)
Min Temperature 66 °F 71 °F 66 °F (1997)
Cooling Degree Days 12    
Growing Degree Days 26 (Base 50)    
Moisture  
Dew Point 58 °F    
Average Humidity 55    
Maximum Humidity 78    
Minimum Humidity 10    
Precipitation  
Precipitation 0.00 in 0.10 in - ()
Sea Level Pressure  
Sea Level Pressure 30.00 in    
Wind  
Wind Speed 10 mph ()    
Max Wind Speed 20 mph    
Max Gust Speed -    
Visibility 6.8 miles    
Events      
Averages and records for this station are not official NWS values.
T = Trace of Precipitation, MM = Missing Value Source: Averaged Metar Reports

Daily Weather History Graph

Daily Weather History Graph

Search for Another Location

Airport or City:

Trip Planner

Search our weather history database for the weather conditions in past years. The results will help you decide how hot, cold, wet, or windy it might be!

Date:

Astronomy

Oct. 17, 2014 Rise Set
Actual Time 5:47 AM AEST 6:17 PM AEST
Civil Twilight 5:25 AM AEST 6:39 PM AEST
Nautical Twilight 5:00 AM AEST 7:04 PM AEST
Astronomical Twilight 4:34 AM AEST 7:30 PM AEST
Moon 1:09 AM AEST (10/17) 12:55 PM AEST (10/17)
Length of Visible Light 13h 13m
Length of Day
12h 29m
Last Quarter, 38% of the Moon is Illuminated
Oct 17
Last Quarter
Oct 24
New
Oct 31
First Quarter
Nov 7
Full
Nov 15
Last Quarter

Hourly Weather History & Observations

Time (AEST) Temp. Heat Index Dew Point Humidity Pressure Visibility Wind Dir Wind Speed Gust Speed Precip Events Conditions
12:00 AM 70 °F - 62 °F 69% 30.03 in - SE 8.1 mph - -  
12:00 AM 69.8 °F - 62.6 °F 78% 30.04 in 6.2 mi SE 8.1 mph - N/A   Partly Cloudy
12:30 AM 69.8 °F - 62.6 °F 78% 30.01 in 6.2 mi SE 10.4 mph - N/A   Partly Cloudy
1:00 AM 69 °F - 61 °F 70% 30.02 in - SSE 6.9 mph - -  
1:00 AM 69.8 °F - 60.8 °F 73% 30.01 in 6.2 mi SSE 6.9 mph - N/A   Partly Cloudy
1:30 AM 69.8 °F - 60.8 °F 73% 30.01 in 6.2 mi SE 9.2 mph - N/A   Partly Cloudy
2:00 AM 68.0 °F - 60.8 °F 78% 29.98 in 6.2 mi SE 11.5 mph - N/A   Mostly Cloudy
2:30 AM 68.0 °F - 60.8 °F 78% 29.98 in 6.2 mi SE 11.5 mph - N/A   Partly Cloudy
3:00 AM 68 °F - 60 °F 70% 29.99 in - SE 11.5 mph - -  
3:00 AM 68.0 °F - 60.8 °F 78% 29.98 in 6.2 mi SE 11.5 mph - N/A   Mostly Cloudy
3:30 AM 68.0 °F - 60.8 °F 78% 29.98 in 6.2 mi SE 11.5 mph - N/A   Partly Cloudy
4:00 AM 68 °F - 60 °F 69% 30.00 in - SE 11.5 mph - -  
4:00 AM 68.0 °F - 60.8 °F 78% 29.98 in 6.2 mi SE 11.5 mph - N/A   Partly Cloudy
4:30 AM 69.8 °F - 60.8 °F 73% 29.98 in 6.2 mi SSE 9.2 mph - N/A   Partly Cloudy
5:00 AM 69.8 °F - 60.8 °F 73% 30.01 in 6.2 mi SSE 9.2 mph - N/A   Partly Cloudy
5:30 AM 68.0 °F - 60.8 °F 78% 30.01 in 6.2 mi SE 11.5 mph - N/A   Partly Cloudy
6:00 AM 68 °F - 61 °F 71% 30.02 in - SE 9.2 mph - -  
6:00 AM 68.0 °F - 60.8 °F 78% 30.01 in 6.2 mi SE 9.2 mph - N/A   Partly Cloudy
6:30 AM 69.8 °F - 60.8 °F 73% 30.04 in 6.2 mi SE 11.5 mph - N/A   Partly Cloudy
7:00 AM 74 °F - 61 °F 56% 30.04 in - South 10.4 mph - -  
7:00 AM 73.4 °F - 60.8 °F 65% 30.04 in 6.2 mi South 10.4 mph - N/A   Partly Cloudy
7:30 AM 77.0 °F - 62.6 °F 61% 30.04 in 6.2 mi SSE 11.5 mph - N/A   Partly Cloudy
8:00 AM 77.0 °F - 62.6 °F 61% 30.06 in 6.2 mi South 12.7 mph - N/A   Partly Cloudy
8:30 AM 78.8 °F - 62.6 °F 57% 30.06 in 6.2 mi South 12.7 mph - N/A   Partly Cloudy
9:00 AM 81 °F - 62 °F 43% 30.06 in 19 mi South 12.7 mph - -   Partly Cloudy
9:00 AM 80.6 °F 81.8 °F 62.6 °F 54% 30.06 in 6.2 mi South 12.7 mph - N/A   Partly Cloudy
9:30 AM 82.4 °F 83.4 °F 62.6 °F 51% 30.06 in 6.2 mi SSE 12.7 mph - N/A   Partly Cloudy
10:00 AM 83 °F - 60 °F 36% 30.06 in - SE 11.5 mph - -  
10:00 AM 82.4 °F 82.9 °F 60.8 °F 48% 30.04 in 6.2 mi SE 11.5 mph - N/A   Partly Cloudy
11:00 AM 84.2 °F 84.4 °F 60.8 °F 45% 30.04 in 6.2 mi SE 11.5 mph - N/A   Partly Cloudy
11:30 AM 86.0 °F 84.9 °F 57.2 °F 37% 30.04 in 6.2 mi East 11.5 mph - N/A   Partly Cloudy
12:00 PM 85 °F - 56 °F 26% 30.01 in - East 13.8 mph - -  
12:00 PM 84.2 °F 83.0 °F 55.4 °F 37% 30.01 in 6.2 mi East 13.8 mph - N/A   Partly Cloudy
12:30 PM 86.0 °F 84.2 °F 53.6 °F 33% 29.98 in 6.2 mi ESE 11.5 mph - N/A   Partly Cloudy
1:00 PM 87 °F - 38 °F 10% 29.99 in - ESE 15.0 mph - -  
1:00 PM 86.0 °F - 39.2 °F 19% 29.98 in - ESE 15.0 mph - N/A   Clear
1:30 PM 87.8 °F - 42.8 °F 21% 29.95 in - ESE 12.7 mph - N/A   Clear
2:00 PM 87.8 °F - 39.2 °F 18% 29.95 in 6.2 mi ESE 13.8 mph - N/A   Unknown
2:30 PM 86.0 °F - 44.6 °F 23% 29.92 in - East 12.7 mph - N/A   Clear
3:00 PM 87 °F - 46 °F 15% 29.94 in 19 mi ESE 11.5 mph - -   Smoke
3:00 PM 87.8 °F - 46.4 °F 24% 29.92 in - ESE 11.5 mph - N/A   Clear
3:08 PM - - - N/A% - 6.2 mi ESE 13.8 mph - N/A   Partly Cloudy
3:30 PM 86.0 °F - 50.0 °F 29% 29.92 in 6.2 mi SE 17.3 mph - N/A   Partly Cloudy
4:00 PM 83 °F - 54 °F 26% 29.94 in - SE 18.4 mph - -  
4:00 PM 82.4 °F 81.4 °F 53.6 °F 37% 29.92 in 6.2 mi SE 18.4 mph - N/A   Partly Cloudy
4:30 PM 82.4 °F 82.0 °F 57.2 °F 42% 29.95 in 6.2 mi SE 18.4 mph - N/A   Partly Cloudy
5:00 PM 80.6 °F 80.8 °F 57.2 °F 45% 29.95 in 6.2 mi SE 19.6 mph - N/A   Partly Cloudy
5:30 PM 78.8 °F - 60.8 °F 54% 29.95 in 6.2 mi SE 17.3 mph - N/A   Partly Cloudy
6:00 PM 77 °F - 60 °F 47% 29.99 in - SE 18.4 mph - -  
6:00 PM 77.0 °F - 60.8 °F 57% 29.98 in 6.2 mi SE 18.4 mph - N/A   Partly Cloudy
6:30 PM 77.0 °F - 62.6 °F 61% 29.98 in 6.2 mi SE 13.8 mph - N/A   Partly Cloudy
7:00 PM 75 °F - 61 °F 53% 30.01 in - SE 13.8 mph - -  
7:00 PM 75.2 °F - 60.8 °F 61% 30.01 in - SE 13.8 mph - N/A   Clear
7:30 PM 75.2 °F - 62.6 °F 65% 30.01 in - South 6.9 mph - N/A   Clear
8:00 PM 73.4 °F - 60.8 °F 65% 30.01 in - SSE 8.1 mph - N/A   Clear
8:30 PM 73.4 °F - 60.8 °F 65% 30.01 in - South 8.1 mph - N/A   Clear
9:00 PM 73 °F - 61 °F 57% 30.03 in - South 6.9 mph - -  
9:00 PM 73.4 °F - 60.8 °F 65% 30.04 in 6.2 mi South 6.9 mph - N/A   Partly Cloudy
9:30 PM 73.4 °F - 60.8 °F 65% 30.04 in 6.2 mi South 6.9 mph - N/A   Partly Cloudy
10:00 PM 73 °F - 61 °F 57% 30.06 in - SSW 4.6 mph - -  
10:00 PM 73.4 °F - 60.8 °F 65% 30.04 in 6.2 mi SSW 4.6 mph - N/A   Partly Cloudy
10:30 PM 71.6 °F - 60.8 °F 69% 30.04 in 6.2 mi South 5.8 mph - N/A   Partly Cloudy
11:00 PM 71.6 °F - 59.0 °F 64% 30.04 in 6.2 mi South 6.9 mph - N/A   Partly Cloudy
11:30 PM 71.6 °F - 59.0 °F 64% 30.04 in 6.2 mi SSE 8.1 mph - N/A   Partly Cloudy